Showing default

THEMIS E, 30798

Orbit data source: Space-Track

THEMIS E, 30798 is a payload satellite owned by GSFC (US) in HEO that was launched on Sat, 17 Feb 2007 UTC via a DELTA 7925-10C launch vehicle from the Air Force Eastern Test Range (AFETR). Payload-class satellites include a variety of spacecraft equipped with specific instruments for various scientific and technological missions. These include communications satellites like Starlink; space stations such as the ISS; scientific satellites like the Hubble; Earth observation satellites from companies like Planet Labs, Umbra, and HawkEye 360; GPS; miniature CubeSats for education and research; and military/defense satellites.

Loading next visibility...
Identifier
30798, 2007-004E
Orbit
HEO
Country
Flag of USUS
Related business
Manufacturer
Swales
Mission
Operational Civil Science
Bus & Motor
ATK-A100, Unknown motor
Mass
125 kg wet, 76 kg dry
Launch date (UTC)
2007-02-17 (19 years ago)
Launch vehicle
DELTA 7925-10C
Launch site
Air Force Eastern Test Range (AFETR)
Object type
Payload
Rocket body
Debris
Shape & HBR
Box + 6 Rod, 24.5 m
Radar Cross Section
0.720 m², Medium (>0.1 m² and < 1m²)

Expand to show TLE details & history
Last TLE update: 6 hours ago

TLE from 6 hours ago
0 THEMIS E
1 30798U 07004E   26071.65278995 -.00000202  00000-0  00000+0 0  9999
2 30798   4.2511  99.5099 8358795 202.7565  58.9807  0.87837299 65062
Epoch: 2026-03-12T15:40Z
TLE epoch observation values (Epoch: 2026-03-12T15:40:01.051Z)
Latitude
-0.2837°
Longitude
51.18129°
Altitude
49,540.326 km
Speed
2.367 km/s
True Right ascension
06h 25m 56s
True Declination
0° 17' 01"
Sunlit
Object was in daylight at epoch
Visualization orbit readout
Latitude
Unknown
Longitude
Unknown
Altitude
Unknown
Speed
Unknown
Apparent Right ascension
Unknown
Apparent Declination
Unknown
Sunlit
N/A
Visualization observer readout
Local Sidereal Time
02:19:03
Azimuth
Unknown
Elevation
Unknown
Doppler factor
Unknown
Orbital elements
Apogee altitude
78,184.991 km
Perigee altitude
1,181.478 km
Semi-major axis
46,061.372 km
Eccentricity
0.83588
Inclination
4.2511°
RAAN
99.5099°
Arg. of periapsis
202.7565°
True anomaly
154.24639°
Mean anomaly
58.9807°
Eccentric anomaly
105.19805°
Mean motion
0.21955 °/min
Orbital period
1,639.7 mins
BSTAR
0
Loading maneuver chart data...
Computing Atmospheric mass density...
Loading historical data...
Loading historical data...
Loading historical data...
Loading historical data...
Loading historical data...
Loading historical data...
Loading historical data...

Documentation

Showing up to 5 results
|